Precipitable_Water
1.68 1.61 1.60 1.57 1.52 1.50 1.51 1.53 1.54 1.58 1.56 1.50 1.46 1.44 1.39 1.33 1.35 1.33 1.31 1.30 1.28 1.25 1.20 1.24 1.33 1.39 1.46 1.46 1.36 1.33 1.32 1.35 1.39 1.39 1.38 1.39 1.43 1.47 1.51 1.55 1.53 1.57 1.58 1.54 1.53 1.51 1.51 1.48 1.49 1.53 1.61 1.56 1.50 1.40 1.36 1.40 1.43 1.42 1.42 1.46 1.53 1.70 1.65 1.55 1.44 1.45 1.66 1.79 1.68 1.69 1.77 1.81 1.78 1.84 1.80 1.82 1.80 1.77 1.67 1.51 1.50 1.50 1.43 1.49 1.56
1.63 1.68 1.67 1.66 1.60 1.58 1.61 1.59 1.53 1.52 1.54 1.56 1.49 1.50 1.51 1.49 1.47 1.49 1.43 1.40 1.36 1.31 1.28 1.29 1.28 1.34 1.37 1.41 1.42 1.40 1.40 1.38 1.41 1.40 1.38 1.38 1.41 1.47 1.48 1.41 1.45 1.50 1.52 1.52 1.55 1.54 1.56 1.49 1.48 1.50 1.53 1.46 1.45 1.41 1.41 1.41 1.45 1.46 1.55 1.56 1.56 1.63 1.78 1.67 1.58 1.50 1.46 1.65 1.63 1.76 1.75 1.79 1.71 1.81 1.77 1.70 1.75 1.76 1.68 1.62 1.54 1.53 1.52 1.64 1.63
1.79 1.78 1.74 1.69 1.65 1.67 1.72 1.71 1.68 1.58 1.50 1.50 1.53 1.54 1.55 1.55 1.56 1.50 1.49 1.50 1.50 1.45 1.42 1.42 1.44 1.43 1.38 1.37 1.39 1.40 1.42 1.43 1.44 1.43 1.39 1.38 1.40 1.50 1.52 1.52 1.50 1.47 1.49 1.50 1.49 1.50 1.47 1.44 1.41 1.47 1.52 1.46 1.49 1.50 1.50 1.49 1.52 1.52 1.55 1.63 1.61 1.63 1.69 1.71 1.57 1.47 1.45 1.50 1.64 1.61 1.64 1.71 1.73 1.76 1.77 1.78 1.79 1.81 1.78 1.73 1.65 1.63 1.61 1.66 1.78
1.93 1.86 1.81 1.77 1.75 1.76 1.76 1.84 1.84 1.76 1.63 1.56 1.54 1.57 1.58 1.59 1.62 1.59 1.55 1.55 1.54 1.55 1.55 1.53 1.52 1.52 1.51 1.43 1.39 1.39 1.40 1.42 1.42 1.43 1.42 1.41 1.42 1.47 1.50 1.50 1.52 1.52 1.52 1.55 1.58 1.59 1.61 1.63 1.65 1.65 1.67 1.59 1.56 1.58 1.57 1.57 1.54 1.56 1.55 1.58 1.62 1.61 1.70 1.72 1.72 1.62 1.59 1.44 1.60 1.61 1.68 1.58 1.63 1.79 1.86 1.87 1.87 1.90 1.91 1.87 1.83 1.85 1.90 1.90 1.86
2.08 1.91 1.78 1.77 1.72 1.68 1.78 1.92 1.93 1.90 1.77 1.74 1.67 1.61 1.55 1.54 1.61 1.64 1.63 1.62 1.64 1.61 1.63 1.65 1.61 1.58 1.55 1.53 1.47 1.43 1.43 1.42 1.41 1.43 1.46 1.47 1.47 1.48 1.49 1.50 1.51 1.53 1.55 1.58 1.62 1.61 1.58 1.60 1.67 1.71 1.72 1.67 1.69 1.67 1.70 1.62 1.65 1.65 1.69 1.77 1.71 1.74 1.78 1.76 1.74 1.76 1.68 1.59 1.63 1.74 1.75 1.66 1.69 1.72 1.81 1.73 1.78 1.82 1.88 1.90 1.95 1.93 1.91 1.99 1.96
2.00 1.95 1.73 1.63 1.67 1.66 1.85 2.01 1.99 1.92 1.89 1.89 1.85 1.85 1.76 1.63 1.52 1.55 1.62 1.63 1.67 1.69 1.64 1.65 1.70 1.65 1.60 1.59 1.58 1.54 1.52 1.51 1.48 1.47 1.47 1.50 1.54 1.57 1.57 1.55 1.57 1.61 1.65 1.67 1.64 1.66 1.65 1.64 1.65 1.66 1.65 1.61 1.61 1.73 1.75 1.73 1.76 1.80 1.80 1.77 1.81 1.84 1.81 1.81 1.82 1.74 1.68 1.63 1.61 1.62 1.73 1.71 1.73 1.75 1.78 1.78 1.70 1.62 1.64 1.75 1.85 1.93 1.94 1.97 2.03
1.90 1.87 1.80 1.60 1.61 1.75 1.83 1.92 1.96 1.85 1.80 1.88 1.91 1.95 2.03 2.00 1.73 1.53 1.53 1.57 1.59 1.65 1.66 1.60 1.67 1.74 1.75 1.71 1.66 1.68 1.64 1.61 1.59 1.57 1.55 1.53 1.53 1.52 1.55 1.62 1.66 1.70 1.72 1.72 1.75 1.73 1.73 1.73 1.75 1.77 1.75 1.74 1.69 1.67 1.75 1.75 1.81 1.81 1.75 1.80 1.77 1.72 1.72 1.73 1.75 1.70 1.64 1.57 1.56 1.59 1.62 1.73 1.74 1.61 1.73 1.76 1.69 1.66 1.57 1.52 1.53 1.73 1.86 1.93 1.92
1.86 1.84 1.80 1.73 1.76 1.86 1.95 1.97 1.93 1.87 1.93 1.95 1.92 1.88 2.03 2.09 2.03 1.96 1.71 1.57 1.55 1.61 1.64 1.64 1.64 1.66 1.70 1.79 1.80 1.74 1.75 1.73 1.72 1.72 1.70 1.65 1.58 1.58 1.56 1.54 1.61 1.71 1.72 1.75 1.74 1.78 1.77 1.79 1.80 1.81 1.79 1.78 1.81 1.83 1.78 1.79 1.86 1.80 1.83 1.87 1.91 1.82 1.71 1.73 1.73 1.69 1.60 1.57 1.54 1.51 1.54 1.50 1.59 1.76 1.83 1.77 1.63 1.64 1.63 1.50 1.44 1.57 1.73 1.90 1.93
1.87 1.86 1.81 1.79 1.82 1.84 1.92 1.95 1.82 1.72 1.72 1.79 1.83 1.89 1.96 1.94 1.99 2.09 1.98 1.83 1.77 1.67 1.65 1.71 1.77 1.74 1.70 1.71 1.76 1.87 1.87 1.82 1.83 1.83 1.80 1.76 1.73 1.68 1.70 1.66 1.62 1.64 1.70 1.73 1.77 1.79 1.77 1.76 1.75 1.75 1.81 1.89 1.85 1.87 1.88 1.91 1.89 1.86 1.89 1.87 1.80 1.76 1.70 1.65 1.63 1.58 1.52 1.53 1.53 1.60 1.57 1.50 1.50 1.56 1.62 1.65 1.65 1.62 1.65 1.57 1.51 1.64 1.77 1.81 1.88
1.94 1.88 1.82 1.78 1.78 1.80 1.83 1.84 1.77 1.73 1.75 1.74 1.74 1.82 1.87 1.86 1.89 2.03 2.20 2.13 1.92 1.82 1.78 1.72 1.65 1.65 1.66 1.66 1.69 1.78 1.82 1.86 1.85 1.88 1.89 1.87 1.92 1.91 1.89 1.86 1.83 1.76 1.79 1.81 1.74 1.75 1.78 1.90 1.89 1.81 1.82 1.87 1.89 1.91 1.91 1.92 1.96 1.91 1.84 1.81 1.81 1.78 1.75 1.66 1.53 1.45 1.41 1.39 1.46 1.49 1.47 1.45 1.46 1.53 1.56 1.66 1.75 1.77 1.69 1.61 1.47 1.64 1.74 1.76 1.81
1.97 1.93 1.90 1.88 1.85 1.83 1.82 1.84 1.82 1.76 1.78 1.78 1.82 1.83 1.89 1.96 1.96 1.84 1.93 2.13 2.09 1.95 1.72 1.65 1.61 1.63 1.64 1.64 1.67 1.73 1.70 1.79 1.94 1.96 1.94 1.89 1.88 1.92 1.88 1.92 1.86 1.76 1.83 1.88 1.92 1.80 1.78 1.81 1.83 1.88 1.81 1.76 1.79 1.88 1.89 1.91 1.93 1.92 1.91 1.91 1.90 1.83 1.68 1.55 1.50 1.47 1.42 1.43 1.45 1.46 1.49 1.52 1.59 1.68 1.66 1.73 1.76 1.71 1.68 1.69 1.65 1.63 1.57 1.53 1.52
1.92 1.95 1.97 2.01 2.00 1.93 1.86 1.82 1.78 1.78 1.81 1.84 1.83 1.81 1.81 1.89 1.90 1.87 1.75 1.73 1.96 2.02 1.95 1.75 1.69 1.68 1.70 1.73 1.77 1.76 1.75 1.78 1.85 1.96 1.98 1.92 1.82 1.81 1.88 1.88 1.81 1.70 1.78 1.80 1.78 1.76 1.73 1.75 1.80 1.79 1.77 1.73 1.73 1.77 1.84 1.88 1.88 1.85 1.83 1.85 1.92 2.00 2.01 1.91 1.76 1.65 1.60 1.53 1.46 1.45 1.46 1.49 1.58 1.66 1.72 1.79 1.79 1.82 1.81 1.81 1.76 1.65 1.58 1.58 1.64
1.90 1.92 1.96 1.98 1.98 1.94 1.90 1.86 1.85 1.83 1.84 1.88 1.91 1.87 1.82 1.84 1.87 1.89 1.90 1.93 1.89 1.77 1.80 1.86 1.82 1.77 1.70 1.72 1.77 1.76 1.79 1.82 1.80 1.83 1.90 1.97 1.92 1.88 1.88 1.83 1.85 1.87 1.77 1.70 1.74 1.80 1.81 1.84 1.83 1.79 1.82 1.83 1.80 1.79 1.80 1.84 1.86 1.84 1.82 1.81 1.88 1.94 1.93 1.90 1.91 1.87 1.82 1.71 1.58 1.51 1.51 1.56 1.55 1.61 1.75 1.78 1.88 1.81 1.86 1.82 1.83 1.77 1.68 1.62 1.71
1.86 1.90 1.94 1.93 1.92 1.95 1.95 1.95 1.89 1.85 1.86 1.84 1.84 1.85 1.86 1.87 1.93 1.96 1.92 1.89 1.87 1.83 1.84 1.89 1.92 1.90 1.87 1.81 1.81 1.86 1.89 1.89 1.88 1.86 1.85 1.88 1.92 1.94 1.92 1.86 1.88 1.88 1.81 1.75 1.70 1.67 1.74 1.83 1.84 1.81 1.84 1.85 1.83 1.80 1.80 1.79 1.80 1.80 1.80 1.80 1.77 1.79 1.81 1.80 1.80 1.84 1.83 1.76 1.72 1.66 1.75 1.84 1.76 1.84 2.01 2.01 1.90 1.82 1.83 1.78 1.83 1.76 1.71 1.68 1.83
1.76 1.79 1.83 1.88 1.93 1.95 1.95 1.92 1.89 1.90 1.88 1.85 1.85 1.85 1.87 1.90 1.95 1.99 1.97 1.94 1.96 1.94 1.94 1.99 2.02 1.97 2.01 1.98 1.93 1.97 1.96 1.93 1.91 1.86 1.82 1.81 1.86 1.93 1.93 1.86 1.78 1.77 1.82 1.90 1.91 1.85 1.84 1.89 1.92 1.92 1.91 1.85 1.83 1.79 1.72 1.70 1.68 1.65 1.68 1.77 1.79 1.75 1.73 1.72 1.72 1.74 1.74 1.80 1.89 1.91 1.94 2.01 2.03 2.03 2.07 2.12 2.06 2.01 1.95 1.88 1.85 1.81 1.79 1.91 1.88
1.69 1.78 1.80 1.85 1.89 1.91 1.90 1.89 1.92 1.95 1.93 1.92 1.89 1.86 1.88 1.91 1.93 2.01 2.00 1.99 1.99 1.98 1.95 1.95 1.95 1.97 2.00 2.00 2.00 1.98 1.97 1.94 1.87 1.83 1.83 1.83 1.85 1.91 2.00 1.94 1.82 1.75 1.74 1.78 1.81 1.88 1.97 2.02 2.00 2.00 1.93 1.84 1.91 1.88 1.82 1.76 1.66 1.58 1.56 1.63 1.72 1.76 1.73 1.76 1.78 1.82 1.85 1.89 1.90 1.88 1.92 2.04 2.12 2.10 2.12 2.11 2.12 2.12 2.05 2.01 1.98 1.93 1.86 1.79 1.70
1.61 1.62 1.68 1.78 1.83 1.86 1.86 1.87 1.88 1.88 1.88 1.89 1.88 1.87 1.87 1.90 1.96 1.99 1.94 1.97 1.97 1.97 1.97 1.97 1.99 1.98 1.97 1.97 2.00 1.98 1.98 1.98 1.96 1.91 1.89 1.90 1.87 1.90 1.96 1.98 1.91 1.83 1.80 1.75 1.68 1.68 1.81 1.95 1.97 1.94 1.84 1.88 1.97 1.95 1.88 1.81 1.68 1.61 1.60 1.62 1.67 1.71 1.69 1.75 1.79 1.83 1.87 1.91 1.92 1.89 1.88 1.95 2.04 2.10 2.13 2.17 2.17 2.20 2.07 1.95 1.86 1.91 1.80 1.71 1.72
1.70 1.72 1.70 1.73 1.77 1.82 1.85 1.85 1.81 1.81 1.79 1.78 1.80 1.81 1.81 1.85 1.89 1.99 1.96 1.97 1.97 1.99 2.02 2.01 2.03 2.03 2.03 2.04 2.02 1.98 1.96 2.01 2.01 2.01 2.00 1.95 1.91 1.89 1.94 1.95 1.91 1.85 1.80 1.79 1.74 1.67 1.70 1.80 1.91 2.01 1.96 1.80 1.81 1.86 1.85 1.80 1.71 1.67 1.66 1.66 1.65 1.64 1.68 1.76 1.75 1.79 1.88 1.94 1.96 1.94 1.93 1.97 2.03 2.08 2.10 2.08 2.13 2.17 2.06 1.85 1.96 1.92 1.71 1.72 1.68
1.74 1.77 1.80 1.81 1.77 1.74 1.75 1.75 1.74 1.72 1.67 1.66 1.65 1.64 1.69 1.70 1.74 1.81 1.84 1.87 1.87 1.89 1.94 1.96 1.98 2.06 2.12 2.14 2.09 2.00 1.97 1.99 2.02 2.04 2.04 2.01 2.00 2.00 2.02 1.99 1.93 1.92 1.89 1.85 1.86 1.79 1.73 1.75 1.80 1.88 1.91 1.87 1.85 1.90 1.87 1.76 1.64 1.62 1.60 1.60 1.60 1.59 1.67 1.75 1.73 1.72 1.78 1.86 1.93 1.96 1.93 1.94 1.99 2.01 2.03 2.06 2.12 2.20 2.19 2.13 2.14 1.99 1.73 1.73 1.73
1.53 1.61 1.68 1.69 1.67 1.66 1.67 1.66 1.66 1.66 1.62 1.62 1.62 1.62 1.65 1.65 1.65 1.64 1.65 1.71 1.72 1.76 1.79 1.84 1.90 1.95 2.08 2.08 2.06 2.08 1.98 2.00 2.02 2.01 2.02 2.01 2.02 2.02 2.03 1.97 1.92 1.93 1.96 1.93 1.90 1.93 1.94 1.87 1.79 1.88 1.99 1.95 1.85 1.84 1.86 1.87 1.73 1.62 1.58 1.50 1.48 1.52 1.73 1.77 1.81 1.83 1.81 1.84 1.91 1.98 1.94 1.95 1.98 2.03 2.06 2.08 2.11 2.17 2.13 2.16 2.12 1.99 1.85 1.77 1.78
1.44 1.51 1.57 1.59 1.59 1.60 1.64 1.62 1.58 1.58 1.59 1.57 1.57 1.57 1.57 1.58 1.60 1.58 1.59 1.65 1.68 1.69 1.75 1.84 2.03 2.08 2.03 2.07 2.02 2.03 2.04 2.04 2.02 2.03 2.04 2.05 2.05 2.05 2.01 1.97 1.96 1.98 1.99 2.01 2.02 1.98 1.99 2.00 1.93 1.78 1.78 1.81 1.77 1.78 1.78 1.83 1.84 1.73 1.63 1.54 1.54 1.60 1.68 1.67 1.74 1.86 1.86 1.84 1.86 1.92 1.94 1.92 1.93 2.00 2.05 2.10 2.18 2.13 2.10 2.11 2.09 2.04 1.99 1.90 1.85
1.33 1.35 1.38 1.45 1.50 1.54 1.53 1.54 1.56 1.55 1.56 1.54 1.51 1.49 1.54 1.57 1.57 1.56 1.58 1.58 1.57 1.59 1.62 1.71 1.75 1.84 1.92 1.95 1.92 1.96 2.11 2.12 2.05 2.08 2.10 2.06 2.02 2.02 2.00 1.97 1.98 1.99 1.96 1.97 1.97 1.96 1.96 1.98 1.93 1.81 1.74 1.74 1.68 1.67 1.68 1.68 1.70 1.68 1.63 1.60 1.58 1.57 1.56 1.62 1.68 1.74 1.84 1.88 1.88 1.88 1.90 1.88 1.85 1.91 1.98 2.01 2.11 2.15 2.11 2.08 2.06 2.09 2.09 2.04 1.97
1.30 1.27 1.24 1.24 1.31 1.38 1.44 1.46 1.47 1.52 1.52 1.53 1.49 1.46 1.50 1.53 1.53 1.53 1.52 1.52 1.52 1.51 1.53 1.58 1.60 1.61 1.64 1.69 1.71 1.76 1.73 1.77 1.97 2.02 2.02 1.98 1.95 1.93 1.91 1.88 1.91 1.85 1.87 1.86 1.87 1.86 1.89 1.87 1.86 1.82 1.77 1.76 1.71 1.68 1.70 1.71 1.69 1.67 1.66 1.64 1.63 1.61 1.59 1.57 1.62 1.66 1.71 1.78 1.84 1.85 1.87 1.86 1.82 1.82 1.90 1.97 2.00 1.99 1.99 2.15 2.12 2.08 2.08 2.09 2.11
1.12 1.11 1.11 1.12 1.14 1.19 1.25 1.31 1.36 1.38 1.42 1.45 1.45 1.43 1.44 1.47 1.49 1.50 1.50 1.49 1.49 1.48 1.49 1.49 1.46 1.43 1.41 1.46 1.54 1.59 1.65 1.65 1.70 1.73 1.71 1.71 1.72 1.74 1.75 1.75 1.75 1.75 1.78 1.77 1.79 1.81 1.80 1.80 1.77 1.71 1.68 1.71 1.71 1.68 1.72 1.77 1.77 1.75 1.72 1.70 1.72 1.74 1.71 1.65 1.66 1.71 1.73 1.74 1.74 1.75 1.77 1.83 1.88 1.89 1.90 1.92 1.92 1.98 1.99 2.05 2.01 2.00 2.07 2.02 2.02
0.99 0.95 0.98 1.00 1.00 1.03 1.07 1.13 1.19 1.22 1.21 1.24 1.26 1.31 1.36 1.41 1.41 1.47 1.48 1.49 1.48 1.45 1.46 1.48 1.45 1.43 1.43 1.44 1.44 1.47 1.53 1.58 1.59 1.62 1.64 1.64 1.65 1.65 1.68 1.68 1.69 1.71 1.69 1.71 1.73 1.70 1.69 1.68 1.65 1.64 1.64 1.73 1.78 1.78 1.77 1.78 1.81 1.81 1.78 1.77 1.77 1.79 1.77 1.73 1.70 1.73 1.71 1.71 1.75 1.79 1.84 1.89 1.91 1.92 1.91 1.83 1.78 1.76 1.81 1.90 1.95 1.97 2.03 1.96 1.98
1.06 1.03 0.99 0.92 0.91 0.90 0.88 0.89 0.96 1.02 1.05 1.08 1.08 1.09 1.10 1.16 1.21 1.26 1.31 1.35 1.38 1.39 1.39 1.39 1.39 1.38 1.37 1.39 1.40 1.41 1.42 1.44 1.45 1.49 1.53 1.54 1.53 1.55 1.55 1.59 1.64 1.63 1.63 1.65 1.64 1.63 1.64 1.65 1.65 1.71 1.81 1.87 1.89 1.87 1.86 1.84 1.83 1.82 1.80 1.80 1.78 1.81 1.82 1.79 1.77 1.74 1.74 1.79 1.81 1.80 1.83 1.87 1.87 1.87 1.85 1.85 1.81 1.79 1.81 1.80 1.84 1.80 1.79 1.80 1.78
1.01 1.01 1.00 1.02 1.00 0.96 0.90 0.86 0.85 0.87 0.92 0.95 0.99 1.01 1.00 0.96 0.99 1.05 1.11 1.15 1.19 1.23 1.26 1.29 1.30 1.31 1.32 1.34 1.38 1.41 1.41 1.37 1.38 1.38 1.42 1.41 1.41 1.42 1.44 1.48 1.52 1.56 1.56 1.54 1.55 1.53 1.52 1.60 1.68 1.76 1.80 1.85 1.88 1.91 1.90 1.91 1.85 1.81 1.81 1.81 1.80 1.81 1.82 1.81 1.80 1.79 1.80 1.80 1.81 1.82 1.85 1.87 1.89 1.84 1.77 1.80 1.80 1.81 1.81 1.77 1.76 1.81 1.80 1.78 1.75
1.04 1.02 1.00 0.98 0.96 0.97 0.96 0.93 0.87 0.81 0.80 0.81 0.82 0.84 0.88 0.88 0.84 0.87 0.91 0.97 1.03 1.09 1.12 1.15 1.15 1.15 1.15 1.21 1.25 1.26 1.24 1.23 1.22 1.23 1.27 1.30 1.35 1.40 1.38 1.36 1.36 1.38 1.39 1.39 1.35 1.38 1.48 1.64 1.69 1.78 1.83 1.87 1.87 1.84 1.82 1.81 1.79 1.78 1.80 1.81 1.81 1.80 1.79 1.80 1.81 1.82 1.83 1.84 1.83 1.82 1.80 1.80 1.78 1.80 1.82 1.79 1.74 1.72 1.71 1.65 1.62 1.61 1.65 1.63 1.59
0.87 0.90 0.95 0.98 0.94 0.89 0.86 0.91 0.86 0.82 0.76 0.73 0.74 0.76 0.76 0.76 0.77 0.76 0.82 0.83 0.86 0.88 0.93 1.01 1.05 1.09 1.05 1.02 1.00 0.95 0.95 0.96 1.03 1.12 1.14 1.16 1.17 1.20 1.22 1.24 1.27 1.29 1.32 1.32 1.35 1.54 1.58 1.61 1.65 1.68 1.70 1.72 1.71 1.70 1.70 1.69 1.69 1.72 1.73 1.73 1.74 1.75 1.73 1.70 1.66 1.68 1.72 1.74 1.72 1.74 1.75 1.76 1.73 1.72 1.69 1.66 1.62 1.56 1.56 1.56 1.60 1.57 1.57 1.58 1.49
0.87 0.78 0.78 0.83 0.87 0.86 0.86 0.80 0.87 0.88 0.82 0.77 0.73 0.78 0.82 0.80 0.73 0.68 0.67 0.72 0.73 0.73 0.76 0.75 0.80 0.84 0.83 0.82 0.81 0.76 0.76 0.82 0.89 0.92 0.95 0.97 0.99 1.01 1.05 1.11 1.18 1.23 1.30 1.28 1.41 1.46 1.50 1.52 1.55 1.57 1.58 1.59 1.58 1.57 1.56 1.55 1.56 1.58 1.61 1.63 1.65 1.65 1.65 1.66 1.67 1.67 1.70 1.70 1.70 1.69 1.68 1.68 1.65 1.64 1.59 1.55 1.56 1.58 1.60 1.58 1.54 1.57 1.51 1.46 1.40
0.81 0.79 0.76 0.74 0.76 0.79 0.79 0.82 0.80 0.78 0.81 0.80 0.77 0.76 0.76 0.80 0.80 0.72 0.71 0.68 0.66 0.65 0.63 0.65 0.67 0.68 0.69 0.68 0.72 0.75 0.75 0.78 0.81 0.84 0.86 0.88 0.90 0.90 0.90 0.91 0.95 1.05 1.16 1.22 1.24 1.25 1.29 1.33 1.37 1.40 1.41 1.42 1.41 1.42 1.44 1.43 1.44 1.46 1.49 1.53 1.55 1.55 1.57 1.58 1.59 1.62 1.63 1.62 1.61 1.60 1.57 1.52 1.49 1.50 1.49 1.50 1.50 1.51 1.53 1.54 1.51 1.47 1.45 1.42 1.35
0.68 0.67 0.69 0.70 0.69 0.73 0.72 0.70 0.74 0.75 0.75 0.77 0.78 0.76 0.73 0.72 0.72 0.76 0.77 0.74 0.74 0.71 0.66 0.60 0.59 0.59 0.60 0.60 0.60 0.60 0.64 0.65 0.70 0.73 0.78 0.83 0.88 0.92 0.95 0.95 0.95 0.99 1.01 1.08 1.04 1.04 1.06 1.09 1.12 1.15 1.18 1.19 1.25 1.30 1.33 1.36 1.39 1.39 1.40 1.39 1.43 1.48 1.50 1.50 1.54 1.52 1.50 1.50 1.49 1.48 1.48 1.49 1.49 1.49 1.48 1.47 1.47 1.45 1.44 1.44 1.41 1.39 1.40 1.38 1.33
0.54 0.55 0.55 0.59 0.65 0.65 0.64 0.65 0.70 0.69 0.66 0.72 0.73 0.73 0.77 0.73 0.67 0.67 0.73 0.77 0.76 0.74 0.73 0.74 0.70 0.60 0.59 0.59 0.58 0.56 0.55 0.59 0.63 0.69 0.73 0.78 0.85 0.89 0.93 0.93 0.94 0.93 0.96 0.93 0.90 0.88 0.91 0.94 0.96 1.00 1.03 1.06 1.10 1.12 1.20 1.26 1.28 1.29 1.31 1.32 1.34 1.39 1.43 1.46 1.49 1.45 1.42 1.42 1.42 1.43 1.46 1.46 1.47 1.47 1.46 1.44 1.41 1.37 1.36 1.34 1.33 1.32 1.28 1.23 1.21
0.63 0.64 0.60 0.57 0.58 0.62 0.62 0.61 0.61 0.63 0.68 0.67 0.69 0.71 0.74 0.76 0.71 0.73 0.71 0.70 0.72 0.72 0.75 0.77 0.74 0.72 0.66 0.64 0.61 0.57 0.57 0.59 0.62 0.67 0.72 0.77 0.80 0.83 0.87 0.90 0.92 0.91 0.88 0.82 0.82 0.82 0.83 0.83 0.87 0.92 0.97 1.02 1.05 1.12 1.17 1.19 1.19 1.22 1.27 1.28 1.30 1.33 1.35 1.39 1.37 1.36 1.36 1.37 1.36 1.36 1.38 1.39 1.40 1.39 1.35 1.33 1.30 1.27 1.23 1.19 1.19 1.18 1.15 1.11 1.07
0.70 0.76 0.75 0.75 0.69 0.64 0.64 0.59 0.56 0.58 0.60 0.60 0.62 0.63 0.70 0.72 0.72 0.75 0.76 0.74 0.71 0.70 0.69 0.74 0.76 0.76 0.75 0.73 0.71 0.67 0.63 0.60 0.62 0.64 0.70 0.75 0.79 0.82 0.89 0.86 0.83 0.82 0.83 0.84 0.83 0.81 0.79 0.81 0.82 0.86 0.88 0.91 0.96 1.01 1.06 1.11 1.13 1.15 1.17 1.19 1.22 1.24 1.27 1.27 1.26 1.27 1.29 1.30 1.31 1.32 1.33 1.33 1.33 1.32 1.29 1.26 1.23 1.20 1.18 1.15 1.10 1.03 0.96 0.96 0.99
0.62 0.70 0.82 0.81 0.75 0.73 0.70 0.62 0.58 0.55 0.52 0.47 0.48 0.57 0.62 0.64 0.66 0.73 0.80 0.80 0.77 0.78 0.79 0.81 0.79 0.78 0.79 0.78 0.73 0.75 0.74 0.72 0.69 0.69 0.71 0.73 0.75 0.77 0.73 0.71 0.73 0.74 0.76 0.79 0.80 0.81 0.81 0.82 0.84 0.84 0.86 0.86 0.89 0.91 0.95 0.99 1.03 1.08 1.12 1.11 1.11 1.15 1.17 1.18 1.21 1.22 1.23 1.23 1.24 1.25 1.26 1.27 1.28 1.28 1.27 1.24 1.20 1.14 1.08 1.03 0.97 0.95 0.94 0.93 0.92
0.55 0.53 0.61 0.73 0.72 0.67 0.58 0.55 0.62 0.63 0.59 0.54 0.54 0.59 0.59 0.67 0.68 0.68 0.76 0.81 0.80 0.79 0.82 0.83 0.81 0.81 0.83 0.84 0.82 0.81 0.80 0.82 0.81 0.79 0.77 0.77 0.80 0.84 0.76 0.74 0.73 0.74 0.74 0.76 0.79 0.80 0.78 0.79 0.83 0.84 0.85 0.85 0.85 0.86 0.87 0.89 0.94 0.97 1.00 1.02 1.03 1.04 1.06 1.11 1.15 1.17 1.16 1.15 1.15 1.16 1.17 1.18 1.19 1.19 1.18 1.13 1.10 1.06 1.00 0.96 0.94 0.93 0.92 0.90 0.87
0.58 0.63 0.67 0.67 0.61 0.56 0.54 0.51 0.62 0.64 0.64 0.64 0.65 0.65 0.63 0.65 0.64 0.66 0.67 0.68 0.72 0.73 0.72 0.75 0.82 0.82 0.79 0.88 0.91 0.86 0.80 0.83 0.86 0.86 0.83 0.79 0.78 0.79 0.78 0.76 0.75 0.74 0.76 0.77 0.79 0.79 0.79 0.79 0.83 0.83 0.84 0.86 0.86 0.86 0.86 0.87 0.90 0.92 0.93 0.95 0.98 0.98 1.00 1.02 1.02 1.03 1.05 1.05 1.06 1.09 1.12 1.13 1.15 1.14 1.11 1.06 1.01 0.97 0.94 0.91 0.88 0.86 0.84 0.82 0.80
0.59 0.60 0.58 0.63 0.62 0.62 0.61 0.58 0.55 0.55 0.62 0.61 0.59 0.57 0.57 0.58 0.58 0.59 0.62 0.67 0.69 0.70 0.72 0.75 0.79 0.85 0.87 0.91 0.91 0.91 0.82 0.82 0.82 0.78 0.78 0.76 0.75 0.76 0.76 0.76 0.75 0.75 0.76 0.77 0.80 0.80 0.80 0.80 0.81 0.81 0.83 0.83 0.84 0.85 0.85 0.84 0.85 0.85 0.87 0.88 0.90 0.93 0.95 0.97 0.99 1.01 1.02 1.02 1.03 1.04 1.03 1.01 0.97 0.93 0.90 0.87 0.84 0.81 0.80 0.81 0.81 0.79 0.76 0.75 0.76
0.61 0.65 0.73 0.64 0.59 0.56 0.54 0.51 0.49 0.51 0.54 0.50 0.59 0.63 0.62 0.59 0.54 0.58 0.63 0.64 0.67 0.69 0.69 0.71 0.75 0.77 0.82 0.82 0.79 0.80 0.77 0.77 0.75 0.77 0.75 0.74 0.75 0.75 0.76 0.75 0.74 0.74 0.74 0.75 0.76 0.77 0.76 0.76 0.77 0.79 0.79 0.81 0.83 0.83 0.83 0.82 0.82 0.82 0.82 0.82 0.81 0.80 0.80 0.80 0.79 0.79 0.78 0.78 0.77 0.76 0.76 0.75 0.76 0.76 0.76 0.75 0.76 0.77 0.78 0.79 0.78 0.78 0.78 0.77 0.76
0.62 0.59 0.62 0.65 0.62 0.58 0.57 0.61 0.60 0.56 0.56 0.60 0.62 0.63 0.63 0.63 0.59 0.59 0.61 0.60 0.59 0.62 0.67 0.69 0.73 0.74 0.75 0.74 0.75 0.76 0.67 0.72 0.76 0.78 0.78 0.77 0.75 0.74 0.74 0.74 0.73 0.73 0.74 0.74 0.75 0.76 0.76 0.76 0.78 0.78 0.77 0.76 0.76 0.76 0.78 0.79 0.80 0.80 0.79 0.78 0.77 0.76 0.77 0.77 0.77 0.76 0.75 0.74 0.74 0.73 0.74 0.75 0.74 0.73 0.72 0.73 0.74 0.74 0.74 0.72 0.71 0.73 0.75 0.76 0.76
0.61 0.61 0.62 0.62 0.62 0.59 0.57 0.58 0.64 0.66 0.66 0.63 0.59 0.62 0.62 0.61 0.64 0.65 0.64 0.66 0.67 0.67 0.67 0.71 0.77 0.77 0.77 0.77 0.76 0.74 0.68 0.67 0.78 0.80 0.81 0.81 0.79 0.76 0.76 0.77 0.75 0.74 0.72 0.71 0.72 0.73 0.75 0.74 0.74 0.74 0.73 0.74 0.74 0.75 0.75 0.74 0.73 0.72 0.72 0.71 0.70 0.70 0.69 0.69 0.70 0.70 0.69 0.69 0.68 0.67 0.67 0.69 0.69 0.69 0.70 0.70 0.70 0.69 0.68 0.68 0.66 0.66 0.66 0.65 0.68
0.55 0.55 0.58 0.58 0.58 0.61 0.60 0.61 0.61 0.58 0.60 0.63 0.66 0.69 0.69 0.68 0.68 0.69 0.71 0.69 0.67 0.68 0.69 0.70 0.75 0.78 0.79 0.81 0.81 0.78 0.72 0.76 0.80 0.79 0.80 0.80 0.80 0.79 0.78 0.77 0.77 0.77 0.75 0.73 0.71 0.71 0.71 0.72 0.74 0.73 0.72 0.72 0.73 0.74 0.73 0.74 0.75 0.74 0.72 0.71 0.70 0.69 0.68 0.68 0.68 0.67 0.68 0.67 0.66 0.66 0.65 0.65 0.63 0.61 0.62 0.63 0.64 0.64 0.64 0.62 0.61 0.62 0.62 0.65 0.65
0.46 0.51 0.55 0.53 0.54 0.55 0.57 0.57 0.59 0.62 0.62 0.62 0.60 0.55 0.54 0.58 0.61 0.65 0.69 0.70 0.69 0.67 0.68 0.70 0.74 0.80 0.79 0.82 0.83 0.79 0.74 0.77 0.80 0.80 0.81 0.82 0.82 0.79 0.80 0.79 0.79 0.78 0.77 0.75 0.73 0.74 0.73 0.71 0.70 0.72 0.71 0.69 0.71 0.72 0.75 0.76 0.76 0.74 0.74 0.72 0.72 0.72 0.71 0.71 0.70 0.68 0.67 0.66 0.65 0.64 0.63 0.62 0.62 0.62 0.61 0.61 0.61 0.58 0.62 0.62 0.63 0.60 0.58 0.60 0.61
0.51 0.56 0.57 0.58 0.61 0.60 0.59 0.59 0.56 0.55 0.54 0.55 0.59 0.63 0.63 0.63 0.64 0.66 0.65 0.65 0.66 0.68 0.68 0.71 0.73 0.75 0.82 0.85 0.85 0.84 0.80 0.80 0.82 0.83 0.83 0.84 0.82 0.81 0.78 0.78 0.77 0.77 0.76 0.74 0.74 0.73 0.72 0.69 0.69 0.69 0.69 0.69 0.70 0.70 0.68 0.68 0.69 0.70 0.71 0.70 0.69 0.67 0.68 0.69 0.70 0.71 0.70 0.68 0.66 0.65 0.63 0.62 0.61 0.60 0.57 0.55 0.57 0.59 0.59 0.60 0.60 0.59 0.60 0.61 0.61
0.55 0.56 0.55 0.53 0.53 0.54 0.55 0.57 0.59 0.58 0.59 0.59 0.58 0.56 0.58 0.61 0.62 0.62 0.65 0.66 0.67 0.69 0.69 0.70 0.72 0.75 0.81 0.86 0.89 0.90 0.90 0.89 0.89 0.87 0.86 0.83 0.80 0.79 0.77 0.76 0.76 0.75 0.74 0.73 0.71 0.70 0.69 0.68 0.67 0.67 0.67 0.67 0.67 0.68 0.68 0.66 0.65 0.65 0.66 0.66 0.65 0.64 0.64 0.63 0.64 0.64 0.63 0.63 0.63 0.62 0.62 0.61 0.62 0.61 0.61 0.58 0.58 0.58 0.55 0.54 0.58 0.58 0.58 0.58 0.59
0.55 0.58 0.57 0.56 0.56 0.56 0.55 0.50 0.49 0.50 0.47 0.47 0.48 0.47 0.50 0.54 0.59 0.62 0.64 0.64 0.64 0.65 0.70 0.74 0.74 0.77 0.84 0.86 0.85 0.85 0.88 0.90 0.87 0.85 0.82 0.81 0.81 0.79 0.77 0.75 0.73 0.71 0.71 0.70 0.69 0.69 0.68 0.67 0.66 0.66 0.66 0.67 0.68 0.68 0.67 0.66 0.64 0.62 0.61 0.62 0.62 0.63 0.63 0.62 0.64 0.66 0.64 0.63 0.63 0.62 0.62 0.60 0.59 0.60 0.63 0.64 0.63 0.61 0.60 0.59 0.58 0.57 0.57 0.56 0.56
0.58 0.56 0.55 0.56 0.56 0.56 0.56 0.56 0.57 0.58 0.55 0.57 0.58 0.59 0.60 0.61 0.62 0.62 0.62 0.62 0.63 0.65 0.67 0.72 0.77 0.81 0.82 0.83 0.84 0.82 0.84 0.86 0.82 0.81 0.81 0.80 0.78 0.77 0.75 0.72 0.71 0.71 0.70 0.69 0.67 0.67 0.67 0.66 0.66 0.66 0.65 0.64 0.63 0.63 0.63 0.64 0.64 0.63 0.62 0.62 0.60 0.59 0.57 0.55 0.55 0.58 0.58 0.60 0.64 0.65 0.64 0.61 0.61 0.61 0.61 0.60 0.59 0.59 0.59 0.58 0.59 0.58 0.57 0.56 0.56
0.57 0.57 0.54 0.55 0.54 0.51 0.51 0.50 0.52 0.54 0.50 0.51 0.55 0.57 0.59 0.59 0.61 0.63 0.63 0.65 0.71 0.76 0.77 0.79 0.77 0.80 0.81 0.82 0.84 0.84 0.83 0.81 0.81 0.81 0.81 0.80 0.78 0.76 0.76 0.76 0.75 0.73 0.70 0.68 0.68 0.67 0.67 0.66 0.65 0.64 0.63 0.62 0.61 0.60 0.60 0.59 0.59 0.59 0.59 0.58 0.57 0.57 0.55 0.52 0.52 0.51 0.52 0.55 0.58 0.60 0.61 0.61 0.60 0.60 0.59 0.58 0.58 0.58 0.58 0.59 0.59 0.58 0.57 0.56 0.56
0.58 0.59 0.56 0.58 0.57 0.56 0.56 0.53 0.54 0.54 0.56 0.58 0.57 0.57 0.58 0.60 0.61 0.63 0.65 0.65 0.69 0.71 0.73 0.75 0.75 0.75 0.76 0.78 0.79 0.79 0.79 0.78 0.77 0.77 0.77 0.77 0.79 0.80 0.79 0.77 0.74 0.71 0.69 0.68 0.68 0.67 0.65 0.64 0.63 0.63 0.64 0.64 0.63 0.62 0.60 0.60 0.60 0.60 0.58 0.56 0.54 0.51 0.48 0.48 0.49 0.50 0.52 0.53 0.55 0.56 0.57 0.58 0.58 0.59 0.59 0.59 0.58 0.58 0.58 0.57 0.57 0.56 0.56 0.56 0.56
0.57 0.57 0.56 0.56 0.57 0.57 0.56 0.56 0.56 0.57 0.58 0.58 0.57 0.56 0.56 0.58 0.59 0.60 0.62 0.65 0.66 0.68 0.70 0.72 0.73 0.74 0.74 0.74 0.74 0.74 0.75 0.75 0.75 0.75 0.75 0.77 0.77 0.75 0.73 0.70 0.69 0.67 0.66 0.66 0.65 0.64 0.64 0.64 0.65 0.67 0.68 0.67 0.66 0.64 0.63 0.62 0.62 0.61 0.59 0.57 0.54 0.50 0.48 0.48 0.48 0.48 0.49 0.53 0.55 0.57 0.56 0.55 0.54 0.55 0.55 0.56 0.56 0.56 0.56 0.56 0.57 0.57 0.56 0.55 0.56
Wind_Speed
17 16 16 16 16 15 15 15 15 15 14 14 14 14 13 13 13 13 13 13 13 13 13 13 12 12 12 12 12 12 12 12 11 11 11 11 11 10 10 10 10 10 9 9 9 9 9 9 9 9 9 9 9 9 9 9 9 9 9 9 9 9 9 8 8 8 9 9 9 9 9 9 9 9 9 9 9 10 10 11 12 12 13 12 11
18 17 17 16 16 16 16 16 16 16 16 15 15 15 14 14 14 14 14 14 13 14 14 14 13 13 13 12 12 12 12 12 12 12 12 12 12 11 11 11 11 11 10 10 10 10 10 10 10 10 10 10 10 10 10 10 9 10 9 9 9 9 9 9 8 8 9 9 9 9 9 9 9 9 10 10 10 11 11 12 12 13 13 13 12
17 17 17 17 16 17 16 16 17 17 17 16 16 16 16 15 15 15 15 15 15 15 14 14 14 14 14 14 13 13 13 13 13 13 13 13 13 12 12 11 11 11 11 11 11 11 10 11 11 10 10 10 10 10 10 10 10 10 10 10 9 9 9 9 9 9 10 10 10 10 9 10 10 10 11 11 12 12 12 12 13 13 13 13 12
17 17 17 17 16 16 16 17 18 18 18 17 17 17 17 16 16 16 16 16 15 16 16 15 15 15 15 15 15 15 14 14 14 14 14 14 14 13 13 13 12 12 12 12 12 11 11 11 11 11 11 11 11 10 10 10 10 10 10 10 10 10 10 10 10 10 10 10 10 10 11 11 12 12 12 13 13 13 13 13 13 13 13 13 13
17 16 17 18 17 17 17 17 18 18 18 17 18 18 18 17 17 17 17 17 17 16 16 16 16 16 16 16 16 16 15 15 15 15 15 14 14 14 14 14 14 13 13 13 13 13 12 12 12 11 11 11 11 11 11 11 11 10 10 10 10 10 10 10 11 11 11 11 11 12 13 13 13 13 13 13 13 13 13 14 14 13 13 13 13
19 18 18 19 19 18 18 17 17 17 17 17 17 18 18 18 18 18 18 18 18 17 17 17 17 17 17 17 16 16 16 16 16 16 16 15 15 15 15 15 15 14 14 14 14 14 14 13 13 13 13 12 12 12 12 11 11 11 12 11 11 11 11 11 12 12 12 12 13 14 14 14 14 14 13 14 14 14 14 15 15 15 15 14 14
20 19 19 20 19 19 19 18 17 18 18 18 17 18 18 18 18 19 19 19 19 19 18 18 18 17 17 17 17 17 17 17 17 17 17 16 16 16 15 15 15 15 15 15 15 14 14 14 14 13 13 13 13 13 13 12 12 12 12 12 12 12 12 13 13 13 13 14 14 15 15 15 15 15 15 15 15 15 15 16 16 16 15 14 14
21 20 20 20 20 20 20 19 19 19 19 19 19 19 19 19 18 18 19 20 20 20 19 19 18 18 18 18 18 18 18 18 18 18 18 18 17 17 17 16 16 16 15 15 15 15 14 14 14 14 14 14 14 14 14 13 13 13 13 13 13 13 14 14 14 15 15 15 16 16 16 16 16 16 15 15 15 15 16 16 16 16 15 14 13
21 21 21 21 21 21 21 21 21 21 20 20 20 20 20 20 20 20 19 19 19 19 19 19 19 18 18 19 19 19 18 18 18 18 19 19 18 18 17 17 17 17 17 16 16 15 15 15 15 15 15 15 15 15 15 15 15 15 15 15 15 15 15 16 16 16 16 17 17 17 17 17 17 16 16 16 16 16 16 16 16 16 15 14 13
22 23 23 22 22 22 22 22 22 21 21 21 21 21 20 20 21 21 20 19 19 19 20 20 20 19 19 19 19 19 19 19 19 19 19 19 19 19 18 18 17 17 16 16 16 16 16 15 16 16 16 16 16 16 16 16 16 17 17 17 17 18 18 17 17 17 17 18 18 18 18 18 18 17 18 18 18 17 17 17 16 15 14 14 14
24 24 24 23 22 22 22 22 22 22 22 22 22 21 21 21 22 22 21 20 20 21 21 22 22 22 21 21 20 20 20 20 20 20 20 19 19 20 19 19 18 18 17 17 17 18 18 17 17 18 18 18 18 17 17 17 18 18 19 19 20 20 19 19 19 19 19 19 19 19 20 20 19 19 19 19 18 18 18 17 16 16 15 15 15
23 24 24 24 23 23 22 22 22 23 22 23 23 22 22 23 22 22 23 23 22 22 22 23 24 24 23 23 22 21 22 21 21 21 21 20 20 20 20 20 19 19 19 19 19 19 19 19 20 20 19 19 19 19 19 19 19 19 19 20 20 20 20 21 21 21 21 21 21 21 21 21 21 20 20 19 19 19 18 18 17 17 16 16 16
20 22 24 25 25 24 24 23 23 23 23 23 24 24 23 24 24 24 24 25 25 25 24 24 25 24 24 24 23 23 23 23 22 22 22 22 22 22 22 21 21 21 21 21 20 20 20 20 20 21 21 21 21 21 21 21 21 21 21 21 21 21 22 22 22 23 23 23 23 23 23 22 22 22 21 20 20 19 19 19 18 18 18 17 17
15 17 19 22 24 24 24 23 23 23 23 23 23 24 24 24 24 24 24 25 25 25 26 25 25 25 25 25 25 25 24 24 24 23 23 22 22 23 23 23 22 22 23 23 22 22 22 22 21 22 22 22 22 22 22 22 22 22 22 22 22 23 23 23 23 24 24 24 23 24 23 23 23 23 22 21 21 21 21 20 20 19 19 18 18
11 13 15 16 19 21 21 20 21 21 21 22 22 23 23 24 24 25 25 25 25 25 26 26 26 26 26 26 26 25 25 24 25 25 24 23 23 24 24 24 23 23 23 24 24 24 23 23 23 23 23 23 23 23 23 24 24 24 24 24 24 24 24 25 25 24 24 24 24 24 24 24 24 24 24 23 23 23 22 22 21 20 20 19 19
8 10 12 14 17 20 20 19 18 19 19 20 21 22 22 23 24 24 25 26 26 26 26 27 27 28 28 28 27 27 25 25 25 26 25 25 25 25 25 25 24 24 24 25 25 25 25 25 24 24 24 24 23 24 24 25 25 25 25 26 26 26 26 26 26 25 25 25 25 25 25 25 25 25 25 24 24 24 23 22 22 21 21 20 19
6 6 7 9 12 15 17 17 17 17 17 17 18 19 21 21 21 22 23 24 25 26 27 27 28 29 30 30 29 28 27 26 26 26 26 26 26 26 26 26 26 26 26 26 26 26 26 26 26 26 26 26 25 25 25 26 26 26 26 27 27 27 27 27 26 26 26 26 26 26 26 26 26 26 25 26 26 25 24 23 22 22 22 21 21
8 7 6 6 7 9 11 12 13 13 14 14 15 15 17 18 18 19 20 21 23 24 25 27 29 30 31 32 31 29 28 28 27 27 26 27 27 27 27 27 28 27 27 27 27 27 27 27 27 26 27 27 27 27 27 27 27 27 27 27 28 27 27 27 26 26 26 26 26 27 27 27 27 27 27 28 28 27 26 25 24 24 23 23 22
5 6 6 6 6 7 8 9 9 10 10 11 11 12 13 14 16 17 17 18 19 20 22 24 26 28 29 30 30 30 29 29 29 28 28 28 28 29 29 29 29 29 28 28 28 28 27 27 27 26 26 27 27 27 27 28 28 28 28 28 28 28 27 27 27 27 27 27 27 27 27 28 28 28 28 29 29 29 28 27 26 25 25 24 24
4 5 6 6 6 6 7 7 8 9 9 9 9 10 11 12 13 14 15 16 16 16 17 17 18 19 21 22 24 26 28 29 30 29 29 29 29 29 30 29 29 30 30 29 29 29 28 28 27 27 26 27 27 27 28 28 28 28 29 29 29 29 28 28 28 28 28 28 29 29 29 29 29 29 29 29 29 29 29 28 28 28 27 26 26
6 6 7 7 7 7 7 7 7 8 9 9 9 9 9 10 11 11 12 13 13 13 13 13 12 13 13 14 16 19 22 26 28 28 28 28 29 29 30 30 30 31 30 30 30 30 30 29 28 28 28 28 28 29 29 29 29 29 30 30 31 31 31 31 31 31 31 31 31 31 31 30 30 30 29 29 28 28 28 28 28 28 27 27 27
7 7 7 8 8 8 7 7 7 8 8 9 9 9 9 9 10 10 10 10 11 11 12 12 12 12 12 13 13 14 15 18 21 23 24 25 26 27 28 29 30 31 31 30 30 30 30 30 30 30 29 30 30 30 30 30 30 30 30 31 32 32 33 33 33 33 33 32 32 32 32 31 31 31 30 29 28 28 28 27 26 26 26 27 26
8 8 8 8 8 9 9 8 8 8 8 8 9 9 9 9 10 10 11 11 10 10 11 10 11 11 12 13 13 12 11 11 12 14 17 19 21 22 23 24 25 26 27 28 29 30 30 31 31 31 31 31 31 31 31 31 31 31 31 31 32 32 33 33 33 33 33 32 32 32 32 31 31 30 29 28 28 27 26 25 25 25 25 24 23
8 8 8 8 9 9 10 10 10 10 9 9 9 9 9 9 9 9 10 10 11 11 11 11 10 11 11 12 12 12 11 10 10 12 15 17 20 21 22 23 24 24 24 26 27 28 30 31 31 31 31 31 31 31 31 31 31 31 32 32 32 32 32 32 32 32 32 32 32 31 31 30 29 28 27 26 26 25 24 25 25 25 23 22 21
8 8 8 9 9 10 10 10 11 11 11 11 10 10 10 10 10 9 9 9 10 10 11 11 11 11 11 12 12 12 11 10 10 12 13 15 18 19 21 22 24 25 25 26 26 27 28 29 30 31 31 31 31 31 30 30 30 31 31 31 31 31 31 31 31 31 31 31 30 29 28 28 27 26 26 26 25 24 24 24 24 23 22 21 22
8 8 8 9 9 9 10 10 11 11 11 11 11 11 11 11 10 10 10 9 9 9 10 11 11 12 12 12 12 12 12 11 11 12 12 13 14 14 15 16 18 20 22 23 24 24 25 25 26 27 27 27 28 29 29 29 30 29 29 29 29 29 29 29 29 30 30 29 28 27 26 26 25 25 25 24 24 23 24 24 23 23 23 22 22
7 8 8 9 9 9 9 10 10 10 11 11 11 12 12 12 11 11 11 11 11 10 10 10 11 12 13 13 14 14 14 14 14 14 14 14 13 14 13 14 14 15 17 18 19 20 20 21 21 22 22 23 24 24 25 25 26 26 25 26 26 26 26 26 26 27 27 26 25 25 24 24 24 23 22 22 22 23 23 23 23 22 22 21 20
8 8 8 8 9 9 10 10 10 10 10 11 11 11 12 12 12 12 12 13 12 12 12 12 12 12 13 14 15 15 15 15 15 15 15 15 14 14 14 14 14 14 15 15 16 17 17 18 18 19 19 20 19 20 20 21 22 22 22 22 23 23 23 23 23 23 23 23 22 22 22 21 21 21 21 21 21 21 21 21 22 22 21 21 20
8 8 9 9 9 9 10 10 10 11 11 11 11 11 11 12 12 12 13 13 13 14 14 14 14 14 14 14 14 15 16 16 16 16 16 15 15 15 15 15 15 15 15 15 16 16 16 17 17 17 17 17 17 18 18 19 19 19 19 20 20 21 21 21 20 20 20 20 20 20 20 20 19 19 20 20 20 20 21 21 21 21 20 20 20
8 8 9 9 9 10 10 10 11 11 11 11 11 11 12 12 13 13 13 13 13 14 14 14 15 15 15 15 15 16 16 16 17 17 17 16 16 16 17 17 16 16 16 16 16 16 17 17 17 17 18 18 18 18 19 19 19 18 18 18 18 18 19 19 19 18 18 19 18 18 18 18 18 19 19 19 20 21 21 20 20 20 20 20 20
7 8 8 8 9 9 10 10 11 11 11 12 12 12 12 12 13 13 13 13 14 14 15 15 15 16 16 16 16 17 17 18 18 18 18 18 18 18 18 18 18 18 18 17 17 17 17 17 17 18 18 19 19 19 19 19 19 19 18 18 18 18 17 17 17 17 17 18 18 18 18 17 17 18 18 19 20 20 20 19 19 19 20 20 20
7 8 8 8 9 9 9 10 10 11 11 12 12 12 12 13 13 13 13 13 14 15 16 16 16 16 17 17 18 18 18 19 19 19 19 19 19 19 19 19 19 20 19 19 19 19 19 19 19 19 19 20 19 19 19 19 19 18 18 18 18 18 18 18 17 17 17 17 18 18 18 18 18 18 18 19 19 19 18 18 19 19 20 20 20
7 7 8 9 9 9 9 9 10 11 11 12 12 13 13 13 13 14 14 14 15 16 16 17 17 17 17 18 18 19 19 20 20 20 20 20 20 20 20 20 20 20 20 20 20 20 20 20 20 21 21 21 21 21 20 19 19 19 19 19 18 18 18 18 18 18 18 18 18 18 18 18 19 19 19 20 20 19 19 19 20 21 22 22 22
8 8 8 9 9 10 10 10 11 11 12 12 13 13 14 14 14 14 15 15 16 16 17 17 18 18 18 19 19 19 20 20 20 20 20 20 20 21 20 20 21 21 20 20 20 21 21 21 21 21 21 21 22 21 21 20 20 20 20 19 19 19 19 19 19 19 18 18 18 18 18 19 19 20 20 20 20 20 21 21 22 23 24 24 24
9 10 10 9 9 10 10 11 11 12 12 13 13 14 14 15 15 16 15 16 16 16 16 17 18 18 19 19 19 20 20 20 20 20 20 20 21 21 20 20 20 21 21 21 21 21 21 22 22 22 22 22 22 22 22 22 22 21 21 20 20 20 20 20 20 20 20 20 20 20 20 20 21 21 21 21 22 22 23 23 24 25 25 25 26
11 11 11 10 10 10 11 12 12 12 13 13 14 15 15 16 17 17 17 17 17 17 17 17 18 19 19 20 19 19 20 20 20 20 20 21 21 21 21 20 21 21 21 21 21 22 22 22 22 22 22 22 22 22 22 22 22 22 22 22 21 21 21 21 21 21 21 21 22 23 23 23 24 24 24 24 25 25 25 26 26 26 26 26 27
12 12 12 11 11 12 13 13 13 14 14 15 15 15 16 17 18 18 18 18 19 19 19 19 20 20 21 21 20 20 20 21 21 21 22 22 22 21 21 21 22 22 22 22 22 22 23 23 24 23 23 23 23 23 23 23 23 23 23 23 23 23 23 23 23 23 23 24 24 25 25 26 26 26 27 27 27 27 28 28 28 28 29 29 29
12 12 12 13 13 14 14 15 15 15 16 16 16 17 18 19 19 20 20 20 21 21 21 21 22 22 22 21 21 22 22 23 23 22 22 22 22 22 22 22 22 23 23 23 23 23 23 24 24 25 24 24 24 24 24 25 25 25 25 25 25 25 25 25 25 26 26 26 27 27 27 27 28 28 28 29 29 30 30 30 30 30 31 31 30
12 12 12 13 14 15 15 15 16 16 16 17 17 18 18 19 20 20 21 21 22 22 22 22 22 21 21 21 22 23 24 24 24 23 22 22 23 23 23 23 23 24 24 24 24 24 24 25 25 25 26 26 26 26 26 26 26 26 27 27 26 26 27 27 27 28 28 28 28 29 29 29 29 30 30 30 31 31 31 31 31 32 31 31 31
13 13 13 13 14 15 15 15 16 16 16 17 18 18 18 19 19 20 21 22 22 22 22 22 22 22 22 23 24 24 24 24 25 24 24 23 23 24 24 24 24 24 24 24 25 25 25 26 26 26 26 27 27 27 27 27 27 28 28 28 29 29 29 29 29 30 30 30 30 30 31 31 31 31 31 31 32 32 32 32 32 32 32 32 31
13 13 14 14 14 14 15 16 16 16 17 18 18 18 18 19 19 20 20 21 22 22 23 23 22 23 24 24 25 25 25 25 25 26 25 25 24 24 25 25 25 25 25 26 26 26 26 26 27 27 28 28 28 28 28 28 29 29 29 30 30 30 31 31 31 31 32 32 32 32 32 32 33 33 33 33 33 33 33 33 33 32 32 32 32
13 14 14 14 14 15 15 16 16 17 18 18 19 19 19 20 20 21 21 22 22 22 23 23 23 23 24 25 25 26 26 26 26 26 26 26 26 26 26 26 25 25 26 26 26 27 27 28 29 30 30 29 29 29 29 29 29 29 30 30 30 30 31 31 31 31 32 32 32 32 32 33 33 33 33 33 33 33 32 32 32 32 32 32 31
14 14 14 15 15 16 16 17 17 18 18 19 20 20 21 21 22 22 22 23 23 23 24 25 25 25 25 26 26 26 26 26 26 27 27 27 27 26 26 26 26 26 26 25 26 26 27 28 29 30 29 29 28 29 30 30 30 30 30 30 30 30 30 30 31 31 32 32 32 32 32 32 33 33 33 32 32 32 32 32 32 32 32 32 32
14 14 15 16 16 17 18 18 18 19 20 20 21 21 22 22 23 23 23 24 24 25 26 26 26 26 26 26 27 27 27 27 27 28 28 27 27 27 27 27 27 27 27 27 27 27 28 29 29 29 29 28 28 29 30 31 31 32 32 32 32 32 32 32 33 33 33 33 33 33 32 32 32 32 32 33 33 32 33 33 32 32 32 32 32
15 15 16 17 17 18 18 19 19 20 20 21 21 22 22 23 23 24 24 25 25 26 27 27 28 27 27 27 27 27 27 28 28 28 27 27 28 28 28 28 28 28 28 29 29 29 29 29 29 30 30 30 30 30 30 31 31 32 32 33 33 33 34 34 35 35 35 34 34 34 34 33 33 33 33 33 33 33 33 33 33 32 32 32 32
15 16 16 17 18 18 19 19 20 21 21 22 22 23 23 24 24 25 25 26 26 27 28 28 28 28 28 28 28 28 27 28 28 27 27 27 28 28 28 28 28 28 29 29 30 29 29 30 30 31 31 31 31 32 32 32 32 32 33 33 34 34 35 35 36 36 36 35 35 34 34 34 33 33 33 33 32 33 33 33 32 32 32 32 32
16 16 17 17 18 19 19 20 21 21 22 22 23 23 24 24 25 26 26 27 27 28 28 28 29 29 28 28 28 28 27 28 28 28 28 28 28 28 28 28 28 28 29 29 30 30 30 30 30 31 32 32 32 33 33 33 33 33 33 33 34 35 35 36 36 36 35 35 34 34 33 33 34 33 33 32 32 33 32 32 32 32 31 31 31
17 17 18 18 19 20 20 21 21 22 22 23 23 24 25 25 26 26 27 27 27 28 28 28 28 28 28 28 27 27 28 28 28 28 28 28 28 28 28 28 28 28 28 28 28 29 29 30 30 30 31 31 31 32 33 33 33 33 33 34 34 35 35 36 35 35 35 34 34 33 32 33 33 33 32 32 32 32 32 31 31 31 31 31 31
17 18 18 19 20 20 21 21 22 22 22 23 24 24 25 26 26 26 27 27 27 27 27 27 28 28 28 28 27 27 27 27 27 27 28 28 28 27 27 27 27 27 27 27 28 28 29 29 29 30 30 30 31 31 32 32 32 33 34 34 35 35 35 35 34 33 33 32 32 32 32 31 31 32 32 31 31 31 30 30 30 30 30 30 30
18 18 19 20 20 21 21 21 22 22 22 23 23 24 25 25 26 26 27 27 27 27 27 28 28 28 28 28 27 27 27 26 26 27 27 27 26 26 26 26 26 26 27 28 28 29 29 29 30 30 30 30 31 31 31 31 32 33 33 33 34 34 33 32 32 31 31 31 31 31 30 30 30 30 30 30 30 29 29 29 29 29 29 29 29
19 19 20 20 20 21 21 21 22 22 23 23 24 24 25 26 26 26 27 27 27 27 27 27 27 27 27 26 26 26 26 26 26 26 26 26 26 26 27 27 27 27 27 28 28 29 29 29 29 29 29 30 30 30 30 30 30 31 31 32 32 31 30 30 30 30 30 29 29 29 29 29 29 29 29 29 28 28 27 27 27 27 27 27 27
Wind_Direction
219 219 219 219 219 220 221 221 220 220 221 221 221 221 222 223 224 225 225 226 227 228 229 231 231 231 232 234 236 235 236 237 239 240 241 244 246 247 247 247 248 250 253 256 258 260 262 264 267 269 270 273 274 276 276 277 278 278 277 276 276 278 278 279 283 290 297 300 301 303 305 305 306 310 311 311 314 316 316 320 324 324 324 324 327
220 219 220 220 220 221 223 223 223 223 223 224 225 225 225 225 226 228 229 229 230 231 232 233 234 235 235 236 238 238 239 239 240 241 241 243 246 248 249 248 248 250 253 256 258 261 264 265 267 270 270 272 273 275 275 275 277 278 279 278 279 280 279 279 284 289 293 296 300 302 304 304 304 306 307 308 310 314 316 320 322 322 326 330 334
223 220 220 222 223 223 224 225 225 225 225 227 228 228 229 229 229 230 231 232 233 233 235 235 236 238 238 239 240 241 241 241 241 242 243 244 246 249 250 249 250 253 255 257 258 260 262 264 266 267 268 270 270 272 273 274 276 277 278 280 282 282 281 281 284 286 289 293 296 298 300 301 300 301 304 305 306 308 311 315 319 321 324 329 333
225 223 222 224 226 226 227 228 227 227 228 229 230 231 232 232 232 233 234 235 235 235 236 237 238 239 240 240 241 242 243 243 243 244 245 246 247 249 250 251 251 253 255 257 258 259 261 263 264 264 266 267 268 270 271 273 274 276 277 278 279 280 281 281 281 284 288 291 292 293 297 298 298 299 301 303 304 304 305 309 314 318 320 323 326
224 227 226 227 229 230 232 234 232 230 231 232 233 235 235 235 235 236 236 237 238 238 237 238 239 240 241 242 242 243 243 244 245 245 246 248 248 248 250 252 253 254 255 257 259 260 262 263 263 264 265 266 267 269 270 272 273 274 276 278 278 279 280 280 282 283 285 288 290 292 295 297 297 298 301 302 303 303 304 306 309 311 313 315 318
230 234 233 232 232 231 234 238 237 234 235 238 240 240 238 238 238 238 238 239 240 241 240 240 241 241 242 242 243 244 244 245 246 246 247 249 249 249 250 252 254 255 256 258 260 261 262 263 263 263 264 265 266 266 268 271 271 270 272 275 277 278 278 279 281 282 283 286 288 291 293 295 296 298 300 301 301 303 304 305 307 307 307 309 312
235 236 236 235 233 232 232 236 238 237 238 242 243 241 241 243 243 241 240 240 240 242 242 242 242 242 243 244 244 245 246 246 246 247 248 249 250 251 252 253 254 255 256 258 260 261 262 263 263 263 264 265 266 266 267 269 270 270 271 272 274 276 276 278 280 282 284 286 289 290 292 294 295 296 298 299 299 300 302 304 306 306 305 306 307
236 236 237 236 235 235 236 238 241 242 241 241 242 242 245 248 249 247 245 242 241 242 243 243 244 244 245 245 245 245 247 248 249 249 249 250 251 252 253 254 255 256 257 258 259 259 261 262 262 263 264 265 265 267 267 267 268 269 270 271 273 276 277 278 280 281 284 286 288 290 291 292 293 293 295 297 297 298 301 303 305 305 305 305 305
237 237 238 238 238 239 241 243 245 245 245 244 245 246 248 249 248 249 248 244 242 242 242 244 245 246 246 247 247 247 247 249 250 251 251 250 251 253 254 255 256 257 258 258 258 259 261 262 262 262 264 264 264 265 265 265 266 267 268 269 271 275 277 279 280 281 283 284 286 288 289 291 292 291 292 293 294 296 299 301 303 303 302 300 300
238 238 239 239 240 241 242 244 245 246 247 248 248 247 247 247 247 249 250 248 246 245 244 245 246 248 249 249 250 249 249 250 251 252 252 251 250 251 252 255 256 256 258 259 259 259 261 263 263 263 264 265 265 265 265 265 267 268 269 270 272 274 275 276 278 279 281 282 283 286 287 288 290 290 289 290 291 293 295 297 299 301 298 295 295
240 240 239 240 241 242 243 245 246 247 248 249 249 248 248 247 248 251 254 254 252 250 249 248 247 248 250 251 251 250 251 252 252 252 252 252 250 250 252 254 255 255 257 259 260 261 262 262 263 264 265 266 267 267 267 268 269 270 271 272 273 274 274 275 276 277 278 280 281 283 285 286 287 288 289 289 289 290 291 293 295 296 295 294 294
242 241 241 241 242 244 245 246 247 248 250 250 250 250 250 249 250 252 254 255 255 255 254 252 250 250 251 252 252 251 251 252 251 251 252 252 252 252 253 254 256 256 257 259 261 262 263 263 263 265 265 265 266 268 269 270 270 271 273 274 274 274 274 275 276 276 277 278 279 281 282 283 284 286 286 286 287 287 288 289 290 291 292 292 292
243 243 242 242 244 246 246 247 248 249 250 251 251 251 251 251 253 255 255 255 256 256 255 254 252 251 251 252 252 252 252 251 251 251 252 253 253 254 254 255 256 257 258 260 261 262 262 264 264 265 265 265 267 269 270 271 272 272 273 274 274 275 275 276 276 276 277 277 277 278 279 281 282 283 282 282 283 283 284 286 286 286 288 289 289
244 243 243 242 242 243 245 246 248 249 250 251 252 253 253 253 255 256 255 254 255 255 254 255 254 252 252 252 253 252 252 252 252 253 254 254 255 255 256 256 256 257 259 261 261 261 262 264 265 266 266 267 268 269 270 272 273 273 274 274 275 275 277 277 277 276 277 277 277 278 279 279 279 280 280 280 280 279 280 282 283 283 285 286 287
249 247 245 241 238 238 241 244 247 250 253 254 254 254 254 254 255 256 255 254 255 255 255 255 255 254 253 253 252 252 253 255 254 254 255 256 256 256 256 256 257 259 260 261 261 262 263 263 264 266 268 268 269 269 270 271 272 273 274 274 275 276 277 278 278 277 277 277 277 279 280 279 278 278 278 278 278 278 278 280 280 280 281 283 285
257 251 247 243 239 236 238 243 250 254 257 258 257 256 255 255 256 256 256 255 255 256 255 255 255 254 253 253 252 252 254 256 256 255 255 256 256 256 256 256 257 260 261 262 262 263 264 264 266 267 268 270 271 270 270 271 272 273 274 274 275 276 277 277 276 276 276 277 278 280 280 280 279 279 278 277 276 276 276 277 277 277 278 280 281
257 252 246 242 239 237 237 242 250 256 259 261 261 259 257 256 257 257 258 257 257 256 256 257 257 255 253 252 252 252 254 256 256 255 255 256 256 256 256 257 258 261 263 263 263 263 265 267 268 268 269 271 272 272 271 271 272 273 274 274 275 276 277 276 275 275 275 276 277 279 279 278 278 278 278 277 276 275 275 275 274 275 276 277 279
254 253 251 245 244 243 240 240 245 253 258 262 264 262 260 259 260 260 259 259 259 258 258 258 258 257 255 253 252 253 253 254 256 256 256 257 257 257 257 258 260 262 263 263 263 264 265 267 269 270 269 268 270 272 272 271 272 272 273 274 274 275 276 276 275 275 275 275 277 279 279 278 278 277 276 276 275 274 275 274 272 274 276 276 277
252 249 250 250 251 251 247 242 243 249 255 261 265 267 266 265 265 263 261 261 261 260 262 264 263 259 257 256 254 253 253 254 255 256 256 258 258 258 258 259 260 262 263 263 264 265 266 266 268 270 269 268 268 271 272 273 272 272 272 273 274 275 276 276 276 275 274 275 277 279 279 279 278 277 276 275 273 273 274 274 272 273 274 274 274
259 252 250 252 255 257 255 251 249 252 259 265 270 272 271 269 268 266 264 265 265 263 265 271 268 259 258 260 259 257 255 254 255 256 257 258 260 259 259 260 261 261 262 262 263 264 265 265 266 267 269 269 269 270 272 274 273 272 272 272 273 274 275 275 275 275 275 275 277 278 279 279 278 277 277 275 273 272 273 273 271 271 272 273 272
263 260 256 256 259 259 257 255 254 258 264 270 274 277 277 275 273 271 267 265 266 266 265 269 268 262 261 267 269 266 263 258 256 256 256 258 259 260 260 261 262 262 262 262 262 262 264 264 264 265 267 270 270 270 271 273 274 274 273 273 273 274 274 274 274 275 276 276 277 278 278 278 277 277 277 275 273 273 272 272 271 270 271 271 271
262 261 260 260 260 259 257 256 258 261 265 270 273 277 280 280 278 277 275 270 268 269 266 264 264 260 259 266 275 278 276 267 258 254 256 259 261 261 262 264 265 263 261 260 261 262 263 262 262 264 267 270 271 271 271 273 274 275 275 275 275 275 275 274 273 274 275 276 277 277 277 276 276 277 276 274 274 273 271 269 270 271 273 273 271
260 261 262 261 261 260 260 261 263 264 266 268 270 273 276 279 280 280 279 277 274 271 268 266 265 261 259 266 275 280 282 279 266 256 258 262 264 265 266 266 265 263 261 260 261 263 263 262 262 265 268 271 272 272 273 273 274 276 277 277 277 276 275 275 274 273 274 275 276 276 275 275 275 275 273 271 272 272 269 267 269 272 273 273 271
263 264 264 265 265 266 266 267 268 268 268 269 270 272 275 278 281 281 278 277 274 271 269 267 268 267 266 269 277 279 279 282 281 274 270 268 267 268 268 266 264 263 263 263 264 265 265 264 265 266 269 271 272 272 273 274 274 276 277 277 277 276 276 275 273 272 273 274 274 274 274 273 273 273 271 270 271 270 267 267 271 273 272 271 270
266 266 266 266 267 268 269 270 270 271 272 272 273 276 278 279 281 280 277 275 272 269 270 270 270 271 270 272 278 282 280 282 287 288 285 278 274 273 272 269 266 265 265 266 267 268 268 266 266 267 269 271 272 272 272 273 275 277 277 277 276 276 276 276 274 273 273 274 274 273 273 272 272 272 271 271 270 268 267 269 272 273 273 275 274
270 269 268 268 267 268 270 272 274 275 276 276 277 279 281 282 282 281 280 278 274 270 268 269 269 271 271 272 275 278 280 282 285 289 291 289 286 283 282 280 275 271 269 268 269 270 270 269 268 269 270 272 272 272 272 273 275 278 279 278 278 277 277 277 276 274 273 272 272 271 271 271 271 270 270 270 269 269 270 271 272 272 273 275 273
270 271 272 271 270 271 273 275 278 281 281 281 282 283 284 285 286 286 285 283 281 278 274 271 270 270 271 273 273 275 277 280 283 285 287 287 288 288 288 288 286 282 277 274 272 270 271 271 271 271 273 274 275 275 275 275 276 278 278 279 279 279 278 278 277 274 272 270 269 269 268 268 269 269 269 269 269 269 270 270 271 271 271 270 267
269 272 275 275 273 273 274 276 280 283 286 287 286 287 288 289 290 290 288 286 284 283 281 280 279 277 276 275 275 274 277 280 283 285 286 286 286 286 286 286 286 284 282 280 277 274 273 273 274 274 275 276 277 279 279 279 278 279 278 278 279 280 280 281 279 276 273 270 269 268 268 268 268 268 268 269 270 270 271 272 271 270 267 265 263
270 273 275 277 278 276 275 277 279 281 286 289 291 292 294 295 294 293 291 290 288 286 285 284 284 283 283 282 281 280 281 283 284 285 285 285 285 284 284 284 284 283 282 280 278 277 277 277 277 278 277 277 278 281 281 281 282 281 281 281 282 282 282 282 280 277 273 270 269 269 269 269 268 268 268 269 270 272 272 273 272 269 264 262 262
272 275 276 278 281 281 280 280 281 282 284 286 289 293 297 299 299 297 294 294 293 292 291 290 288 288 287 287 288 288 287 288 288 287 286 286 286 285 284 282 281 282 282 279 277 278 279 278 278 279 279 279 281 282 282 282 282 281 281 283 284 284 283 282 280 277 274 272 271 270 269 268 268 268 268 268 269 270 270 269 269 266 262 260 262
271 275 277 280 284 285 283 283 284 286 286 288 289 290 293 297 299 298 297 296 296 296 295 293 292 293 292 291 291 291 291 292 292 291 290 289 289 288 287 285 283 282 282 279 278 279 280 278 278 279 280 280 282 282 282 282 281 280 280 281 281 282 282 281 279 277 275 273 271 270 269 268 267 267 268 268 269 269 268 267 266 264 262 263 267
270 273 277 280 285 287 286 285 286 287 287 289 290 288 287 289 292 294 294 295 295 295 295 294 294 294 295 295 294 293 292 293 293 293 293 292 291 291 291 290 288 286 283 280 280 281 281 280 280 280 280 280 281 281 281 280 278 277 277 278 278 278 277 276 275 275 274 274 273 272 271 269 268 268 268 269 269 269 269 267 267 267 268 269 272
269 274 280 281 282 285 287 287 288 289 289 290 290 289 287 286 287 289 291 292 292 292 293 295 295 295 295 296 296 294 293 292 292 292 292 292 292 292 292 292 292 290 287 284 284 284 283 282 282 282 281 281 281 280 279 278 277 277 276 275 276 276 274 273 273 273 274 274 274 273 271 270 270 270 270 271 270 270 269 269 269 270 271 272 273
268 273 281 283 282 284 287 288 288 289 290 290 291 291 291 290 288 288 288 289 290 290 290 292 293 294 295 296 295 294 293 292 291 291 290 291 292 292 291 290 291 292 290 288 287 287 286 285 284 283 282 282 282 281 279 278 278 278 277 275 274 274 273 272 272 273 273 273 273 272 270 270 270 270 270 270 270 270 270 271 272 273 274 275 276
272 272 275 280 281 283 286 289 290 289 290 291 291 291 293 293 291 289 287 287 288 287 287 290 291 292 294 295 295 294 294 292 292 291 290 290 291 292 290 290 290 290 289 289 289 288 287 286 285 284 283 283 282 282 281 279 279 279 278 276 275 275 274 274 275 275 274 273 273 272 271 271 272 273 273 273 273 274 274 276 277 277 277 277 277
277 276 276 278 280 281 284 287 288 289 291 290 289 289 290 291 292 290 288 288 290 288 286 288 291 291 292 294 293 293 293 293 293 292 291 290 291 291 290 290 290 289 289 289 288 288 287 287 286 285 284 283 283 283 282 281 280 279 278 276 276 275 275 275 276 276 275 274 274 274 273 274 275 276 277 277 277 278 278 279 279 280 280 280 279
277 277 277 278 279 281 283 283 283 285 288 289 288 288 289 290 292 292 290 289 291 291 288 287 288 289 290 290 289 289 290 291 292 292 291 291 290 290 289 289 288 288 288 288 287 287 287 286 286 285 284 283 283 283 282 281 281 280 279 277 277 277 276 275 275 275 275 276 277 276 276 276 277 278 278 278 278 279 279 279 279 280 281 281 280
276 276 276 277 280 283 285 285 283 283 285 287 288 288 289 289 290 291 290 289 290 291 290 289 288 287 287 288 288 289 290 290 289 290 290 290 290 290 289 288 287 287 286 286 286 286 285 285 285 284 283 283 282 281 281 280 280 280 279 279 279 278 277 277 276 276 277 278 278 278 277 277 277 278 279 279 279 279 279 279 280 280 280 280 280
280 278 278 280 283 285 286 287 287 287 286 287 287 287 288 289 289 289 290 290 290 290 290 290 290 289 288 287 288 290 290 290 289 289 289 290 290 289 289 288 287 286 286 285 285 285 284 284 283 283 283 282 282 281 281 280 279 279 279 279 278 278 278 277 277 277 277 278 278 278 277 277 277 278 278 278 278 279 279 279 280 280 280 279 279
283 283 283 284 286 288 287 287 287 288 288 288 289 289 291 292 291 291 291 291 291 291 290 289 289 289 288 289 290 290 290 290 289 288 289 289 289 288 288 287 287 286 286 285 285 284 284 283 282 282 281 281 281 281 280 280 279 279 279 278 278 278 277 277 277 277 277 277 277 277 277 277 277 277 277 277 277 278 278 279 279 278 278 278 278
286 285 286 287 288 288 288 288 288 289 290 291 292 294 295 294 293 293 293 292 292 293 293 291 290 289 289 289 290 290 289 288 288 288 288 287 287 287 287 286 285 285 285 285 284 283 283 282 281 280 280 280 280 279 280 280 279 279 279 279 278 278 277 277 277 277 277 277 277 277 277 277 277 276 276 276 277 277 277 278 278 277 277 277 278
286 286 287 288 288 288 288 289 290 291 292 292 294 295 295 295 294 294 295 294 293 293 293 292 291 291 291 291 291 290 288 286 287 288 288 286 286 287 286 285 284 286 286 285 284 284 283 282 281 281 280 280 279 279 279 279 279 279 279 279 278 278 277 277 277 277 277 277 277 277 277 277 277 276 275 275 276 276 275 276 277 277 276 276 276
285 285 287 288 287 288 289 289 291 292 293 294 296 296 296 296 296 296 296 296 295 294 294 293 291 292 292 292 292 290 287 285 286 288 287 286 286 287 286 284 284 286 286 285 284 284 284 284 283 281 280 280 280 279 279 279 278 278 278 278 277 277 277 276 276 276 276 276 276 276 276 277 277 276 275 275 275 275 275 275 275 275 275 275 276
286 286 286 287 287 288 289 289 291 292 293 294 295 295 294 294 294 294 294 295 295 294 294 293 292 292 293 292 291 289 286 285 286 287 285 284 285 286 286 285 285 285 285 285 285 285 284 283 283 282 281 280 280 280 280 280 279 278 277 277 276 276 276 276 276 276 276 276 275 275 275 276 275 275 274 274 274 274 274 274 275 275 275 275 275
287 287 287 288 289 290 291 292 293 295 296 296 296 296 295 295 295 295 295 295 295 295 295 294 294 294 293 292 292 290 288 287 287 286 285 284 285 285 285 286 285 285 285 285 285 285 284 283 282 282 282 281 280 280 280 280 280 279 278 277 277 277 277 277 277 277 277 276 275 274 274 274 274 274 274 274 273 274 274 274 274 275 275 275 275
287 288 289 290 291 293 293 294 296 297 298 298 299 298 298 298 297 297 297 297 297 297 296 296 295 295 293 292 291 290 289 288 287 286 285 285 284 284 285 285 285 285 285 285 285 285 284 282 282 282 281 281 281 281 280 280 279 279 278 278 278 278 278 278 278 277 277 276 275 274 274 274 274 274 274 274 274 274 274 274 274 275 275 275 275
289 290 290 291 292 293 293 294 296 296 296 297 297 297 297 298 299 298 298 298 298 297 296 296 295 295 294 292 291 290 288 287 287 286 285 284 283 283 284 285 285 285 285 285 284 284 282 282 282 282 282 281 281 280 280 279 279 278 278 278 278 278 279 279 278 277 277 275 274 274 274 274 274 274 273 274 274 274 274 274 275 275 275 275 275
290 290 290 292 294 294 295 297 298 299 300 301 301 301 301 301 301 300 300 299 299 297 297 296 296 295 294 293 291 290 288 286 285 285 284 284 283 283 284 284 284 284 284 285 284 284 283 283 283 283 283 283 282 281 281 280 279 278 279 279 279 280 281 280 278 276 276 274 273 273 274 274 274 274 274 274 274 274 274 274 275 275 275 275 276
290 291 293 295 296 297 297 298 299 300 300 301 303 303 303 303 302 301 301 300 300 299 298 297 297 295 293 291 290 288 287 286 285 285 285 284 283 283 283 284 285 285 285 286 286 286 286 286 285 285 285 285 284 284 283 282 281 281 281 281 281 282 282 280 278 276 275 274 272 273 274 274 273 273 273 274 274 274 274 274 275 275 275 275 276
291 293 295 295 297 297 297 298 299 300 301 302 303 303 303 303 304 304 303 302 302 301 299 298 297 295 293 291 289 287 286 285 284 284 284 284 283 283 284 285 286 286 286 287 288 289 289 289 288 287 286 285 285 285 284 283 283 283 283 283 284 284 282 280 278 277 276 274 273 274 275 274 274 274 274 274 274 274 274 274 275 275 275 276 276
291 293 293 294 296 297 298 298 299 301 302 304 304 304 303 304 305 305 304 304 304 303 301 299 297 295 293 291 290 287 286 285 284 283 283 283 282 283 284 285 286 287 287 288 289 289 290 289 289 287 286 285 285 285 284 284 285 284 284 285 285 284 282 280 278 278 276 274 273 274 275 274 274 274 274 274 274 275 274 274 274 275 275 275 276